This is the latest recevied weather packets stored in our database for station/object DL9RAN-11. If no packets are shown the sender has not sent any weather packets the latest 10 day(s).
| Time | Temp. | Humidity | Pressure | Rain* | Wind** | Luminosity | Snow |
|---|---|---|---|---|---|---|---|
| 1778006334 | 17.78° C | 63% | 1009.7 hPa | - | - | - | - |
| 1778006033 | 17.78° C | 64% | 1009.7 hPa | - | - | - | - |
| 1778005733 | 17.78° C | 64% | 1009.7 hPa | - | - | - | - |
| 1778005433 | 17.78° C | 64% | 1009.7 hPa | - | - | - | - |
| 1778005133 | 17.78° C | 63% | 1009.7 hPa | - | - | - | - |
| 1778004832 | 18.33° C | 63% | 1009.6 hPa | - | - | - | - |
| 1778004532 | 18.33° C | 62% | 1009.7 hPa | - | - | - | - |
| 1778004232 | 18.33° C | 61% | 1010 hPa | - | - | - | - |
| 1778003931 | 18.89° C | 60% | 1010 hPa | - | - | - | - |
| 1778003631 | 19.44° C | 57% | 1010 hPa | - | - | - | - |
| 1778002999 | 19.44° C | 52% | 1009.9 hPa | - | - | - | - |
| 1778002368 | 20° C | 52% | 1009.9 hPa | - | - | - | - |
| 1778002067 | 20° C | 52% | 1010 hPa | - | - | - | - |
| 1778001767 | 20° C | 51% | 1010 hPa | - | - | - | - |
| 1778001467 | 20.56° C | 51% | 1010 hPa | - | - | - | - |
| 1778001167 | 20.56° C | 51% | 1009.3 hPa | - | - | - | - |
| 1777999873 | 21.67° C | 47% | 1009.3 hPa | - | - | - | - |
| 1777999241 | 23.33° C | 46% | 1008.8 hPa | - | - | - | - |
| 1777998278 | 23.33° C | 41% | 1008.8 hPa | - | - | - | - |
| 1777997978 | 23.33° C | 41% | 1008.8 hPa | - | - | - | - |
| 1777997678 | 23.33° C | 40% | 1008.8 hPa | - | - | - | - |
| 1777997046 | 23.33° C | 41% | 1008.8 hPa | - | - | - | - |
| 1777996415 | 23.89° C | 41% | 1008.8 hPa | - | - | - | - |
| 1777996114 | 23.89° C | 40% | 1008.8 hPa | - | - | - | - |
| 1777995483 | 23.89° C | 40% | 1008.8 hPa | - | - | - | - |
* Rain since midnight (hover to see other rain measurements)
** Current wind speed in m/s (hover to see current wind gust speed)